Location: Janeiro
(34.9957°N, 76.7652°W)
Time: 01:42:56
(UTC+00:00)

Okean 2 Rocket - Pass Details

Date: 14 December 2019
Orbit: 617 x 641 km, 82.5° (Epoch: 27 January)

Event Time Altitude Azimuth Distance (km) Brightness Sun altitude
Rises 22:58:01 0° 2° (N) 2,936 6.3 -12.3°
Reaches altitude 10° 23:00:24 10° 11° (N) 2,028 5.4 -12.8°
Maximum altitude 23:04:35 37° 79° (E) 986 3.6 -13.6°
Drops below altitude 10° 23:08:46 10° 148° (SSE) 2,023 5.6 -14.4°
Sets 23:11:08 0° 156° (SSE) 2,929 6.5 -14.9°
